When you browse on this site, cookies collect data to enhance your experience and personalize the content and advertising you see.
Visit our Privacy Policy to learn more. By continuing to use the site, you agree to this use of cookies and data.
  • In Sweden
  • List of Countries
  • For 7 days
  • Water Temperature
  • Weather Map
  • Weather Widgets
  • user-avatar
    Login

    Hourly Weather Coeur d'Alene

    Today, 6 June, Saturday

    Time Temperature Precipitation Wind Pressure Humidity
    00:00 +13°C° 0 mm 1 mps 695 mmHg 98%
    01:00 +12°C° 0 mm 1 mps 694 mmHg 98%
    02:00 +12°C° 0.1 mm 1 mps 695 mmHg 97%
    03:00 +12°C° 0.1 mm 1 mps 695 mmHg 97%
    04:00 +12°C° 0.1 mm 1 mps 695 mmHg 96%
    05:00 +12°C° 0 mm 2 mps 695 mmHg 94%
    06:00 +12°C° 0 mm 2 mps 695 mmHg 92%
    07:00 +12°C° 0 mm 2 mps 695 mmHg 90%
    08:00 +14°C° 0 mm 2 mps 695 mmHg 79%
    09:00 +15°C° 0 mm 2 mps 695 mmHg 69%
    10:00 +17°C° 0 mm 2 mps 695 mmHg 58%
    11:00 +17°C° 0.1 mm 3 mps 695 mmHg 54%
    12:00 +18°C° 0.1 mm 3 mps 695 mmHg 50%
    13:00 +19°C° 0.1 mm 4 mps 695 mmHg 47%
    14:00 +18°C° 0 mm 4 mps 695 mmHg 48%
    15:00 +18°C° 0 mm 4 mps 695 mmHg 49%
    16:00 +18°C° 0 mm 4 mps 695 mmHg 50%
    17:00 +16°C° 0 mm 3 mps 694 mmHg 56%
    18:00 +14°C° 0 mm 3 mps 694 mmHg 62%
    19:00 +14°C° 0 mm 2 mps 694 mmHg 69%
    20:00 +12°C° 0 mm 2 mps 694 mmHg 74%
    21:00 +10°C° 0 mm 2 mps 694 mmHg 79%
    22:00 +9°C° 0 mm 1 mps 694 mmHg 85%
    23:00 +9°C° 0 mm 1 mps 694 mmHg 86%

    Tomorrow, 7 June, Sunday

    Time Temperature Precipitation Wind Pressure Humidity
    00:00 +7°C° 0 mm 2 mps 694 mmHg 86%
    01:00 +6°C° 0 mm 2 mps 694 mmHg 87%
    02:00 +6°C° 0 mm 2 mps 694 mmHg 87%
    03:00 +6°C° 0 mm 2 mps 694 mmHg 86%
    04:00 +6°C° 0 mm 2 mps 694 mmHg 85%
    05:00 +7°C° 0 mm 2 mps 694 mmHg 83%
    06:00 +7°C° 0 mm 2 mps 694 mmHg 80%
    07:00 +8°C° 0 mm 3 mps 694 mmHg 77%
    08:00 +9°C° 0 mm 3 mps 694 mmHg 75%
    09:00 +10°C° 0 mm 3 mps 694 mmHg 72%
    10:00 +10°C° 0 mm 4 mps 695 mmHg 70%
    11:00 +11°C° 0.2 mm 4 mps 694 mmHg 72%
    12:00 +11°C° 0.2 mm 4 mps 694 mmHg 74%
    13:00 +12°C° 0.2 mm 4 mps 694 mmHg 76%
    14:00 +12°C° 0.7 mm 4 mps 694 mmHg 79%
    15:00 +12°C° 0.7 mm 4 mps 694 mmHg 82%
    16:00 +13°C° 0.7 mm 4 mps 694 mmHg 85%
    17:00 +12°C° 0.6 mm 3 mps 694 mmHg 86%
    18:00 +12°C° 0.6 mm 3 mps 694 mmHg 86%
    19:00 +12°C° 0.6 mm 2 mps 694 mmHg 87%
    20:00 +10°C° 0.1 mm 2 mps 694 mmHg 87%
    21:00 +9°C° 0.1 mm 2 mps 695 mmHg 87%
    22:00 +8°C° 0.1 mm 2 mps 695 mmHg 87%
    23:00 +7°C° 0 mm 3 mps 696 mmHg 87%

    Day after tomorrow, 8 June, Monday

    Time Temperature Precipitation Wind Pressure Humidity
    00:00 +7°C° 0 mm 3 mps 696 mmHg 87%
    01:00 +5°C° 0 mm 3 mps 697 mmHg 86%
    02:00 +5°C° 0 mm 3 mps 698 mmHg 86%
    03:00 +5°C° 0 mm 3 mps 698 mmHg 86%
    04:00 +4°C° 0 mm 3 mps 699 mmHg 86%
    05:00 +5°C° 0.1 mm 3 mps 699 mmHg 86%
    06:00 +6°C° 0.1 mm 4 mps 700 mmHg 85%
    07:00 +6°C° 0.1 mm 4 mps 701 mmHg 85%
    08:00 +8°C° 0 mm 5 mps 701 mmHg 77%
    09:00 +9°C° 0 mm 5 mps 702 mmHg 70%
    10:00 +10°C° 0 mm 5 mps 702 mmHg 62%
    11:00 +13°C° 0 mm 6 mps 702 mmHg 56%
    12:00 +14°C° 0 mm 6 mps 702 mmHg 49%
    13:00 +15°C° 0 mm 7 mps 703 mmHg 43%
    14:00 +15°C° 0 mm 6 mps 702 mmHg 42%
    15:00 +16°C° 0 mm 6 mps 702 mmHg 41%
    16:00 +16°C° 0 mm 6 mps 702 mmHg 41%
    17:00 +15°C° 0 mm 5 mps 702 mmHg 45%
    18:00 +13°C° 0 mm 4 mps 702 mmHg 50%
    19:00 +12°C° 0 mm 3 mps 702 mmHg 54%
    20:00 +10°C° 0 mm 3 mps 703 mmHg 64%
    21:00 +8°C° 0 mm 2 mps 703 mmHg 73%
    22:00 +6°C° 0 mm 2 mps 704 mmHg 83%
    23:00 +6°C° 0 mm 2 mps 704 mmHg 86%

    9 June, Tuesday

    Time Temperature Precipitation Wind Pressure Humidity
    00:00 +5°C° 0 mm 2 mps 704 mmHg 90%
    01:00 +5°C° 0 mm 1 mps 704 mmHg 94%
    02:00 +5°C° 0 mm 1 mps 705 mmHg 94%
    03:00 +5°C° 0 mm 1 mps 705 mmHg 95%
    04:00 +4°C° 0 mm 1 mps 705 mmHg 96%
    05:00 +7°C° 0 mm 1 mps 705 mmHg 85%
    06:00 +9°C° 0 mm 1 mps 705 mmHg 74%
    07:00 +10°C° 0 mm 2 mps 705 mmHg 63%
    08:00 +12°C° 0 mm 2 mps 706 mmHg 60%
    09:00 +13°C° 0 mm 3 mps 706 mmHg 57%
    10:00 +14°C° 0 mm 4 mps 706 mmHg 54%
    11:00 +12°C° 0.2 mm 3 mps 706 mmHg 66%
    12:00 +12°C° 0.2 mm 2 mps 706 mmHg 77%
    13:00 +10°C° 0.2 mm 2 mps 706 mmHg 88%
    14:00 +11°C° 0.3 mm 1 mps 706 mmHg 90%
    15:00 +11°C° 0.3 mm 1 mps 706 mmHg 92%
    16:00 +11°C° 0.3 mm 1 mps 706 mmHg 95%
    17:00 +11°C° 0 mm 1 mps 706 mmHg 94%
    18:00 +11°C° 0 mm 1 mps 706 mmHg 94%
    19:00 +10°C° 0 mm 0 mps 706 mmHg 93%
    20:00 +10°C° 0 mm 1 mps 706 mmHg 94%
    21:00 +10°C° 0 mm 1 mps 707 mmHg 95%
    22:00 +9°C° 0 mm 1 mps 707 mmHg 96%
    23:00 +9°C° 0.1 mm 1 mps 707 mmHg 96%

    10 June, Wednesday

    Time Temperature Precipitation Wind Pressure Humidity
    00:00 +9°C° 0.1 mm 1 mps 707 mmHg 96%
    01:00 +9°C° 0.1 mm 0 mps 707 mmHg 96%
    02:00 +9°C° 0.1 mm 0 mps 707 mmHg 96%
    03:00 +10°C° 0.1 mm 1 mps 707 mmHg 96%
    04:00 +10°C° 0.1 mm 1 mps 707 mmHg 96%
    05:00 +10°C° 0 mm 0 mps 707 mmHg 95%
    06:00 +11°C° 0 mm 0 mps 707 mmHg 94%
    07:00 +12°C° 0 mm 0 mps 708 mmHg 92%
    08:00 +13°C° 0.1 mm 0 mps 708 mmHg 87%
    09:00 +15°C° 0.1 mm 0 mps 708 mmHg 82%
    10:00 +16°C° 0.1 mm 0 mps 708 mmHg 77%
    11:00 +20°C° 0.1 mm 1 mps 708 mmHg 67%
    12:00 +22°C° 0.1 mm 1 mps 708 mmHg 58%
    13:00 +24°C° 0.1 mm 1 mps 708 mmHg 48%
    14:00 +24°C° 0 mm 1 mps 708 mmHg 47%
    15:00 +24°C° 0 mm 1 mps 708 mmHg 47%
    16:00 +24°C° 0 mm 1 mps 707 mmHg 47%
    17:00 +22°C° 0 mm 1 mps 707 mmHg 55%
    18:00 +18°C° 0 mm 0 mps 706 mmHg 63%
    19:00 +17°C° 0 mm 0 mps 706 mmHg 71%
    20:00 +15°C° 0 mm 0 mps 706 mmHg 76%
    21:00 +15°C° 0 mm 1 mps 706 mmHg 81%
    22:00 +13°C° 0 mm 1 mps 706 mmHg 85%
    23:00 +13°C° 0 mm 1 mps 706 mmHg 87%

    11 June, Thursday

    Time Temperature Precipitation Wind Pressure Humidity
    00:00 +12°C° 0 mm 1 mps 705 mmHg 89%
    01:00 +11°C° 0 mm 1 mps 705 mmHg 90%
    02:00 +11°C° 0 mm 1 mps 705 mmHg 91%
    03:00 +11°C° 0 mm 1 mps 705 mmHg 91%
    04:00 +10°C° 0 mm 1 mps 705 mmHg 92%
    05:00 +13°C° 0 mm 1 mps 705 mmHg 81%
    06:00 +16°C° 0 mm 1 mps 705 mmHg 71%
    07:00 +19°C° 0 mm 1 mps 706 mmHg 60%
    08:00 +22°C° 0 mm 1 mps 706 mmHg 54%
    09:00 +24°C° 0 mm 1 mps 706 mmHg 49%
    10:00 +26°C° 0 mm 2 mps 706 mmHg 43%
    11:00 +28°C° 0 mm 1 mps 706 mmHg 38%
    12:00 +30°C° 0 mm 1 mps 705 mmHg 34%
    13:00 +32°C° 0 mm 1 mps 705 mmHg 30%
    14:00 +31°C° 0 mm 1 mps 705 mmHg 32%
    15:00 +31°C° 0 mm 2 mps 704 mmHg 35%
    16:00 +30°C° 0 mm 2 mps 703 mmHg 38%
    17:00 +27°C° 0 mm 2 mps 703 mmHg 49%
    18:00 +25°C° 0 mm 1 mps 702 mmHg 60%
    19:00 +23°C° 0 mm 1 mps 702 mmHg 72%
    20:00 +19°C° 0.1 mm 0 mps 702 mmHg 77%
    21:00 +17°C° 0.1 mm 0 mps 702 mmHg 82%
    22:00 +16°C° 0.1 mm 0 mps 702 mmHg 87%
    23:00 +15°C° 0.5 mm 0 mps 702 mmHg 89%
    Show more